Back to catalog

SL-16 DEB

AlivePO
NORAD 43369·DEBRIS·🇷🇺 Russia

Launched Dec 10, 2001 from Baikonur Cosmodrome

Loading…

Next Passes (next 24 hours)

TLE

AgingSource: Space-Track

Epoch: Sep 7, 2026, 13:22 UTC

1 43369U 01056N   26250.55701566  .00003186  00000-0  10979-2 0  9993
2 43369  99.2793 162.3674 0072406  75.9390  48.8313 14.35203837642866

Track SL-16 DEB in real time with AllMySat

Download on the App Store